Location: Asheville, NC
(35.6000°N, 82.5500°W)
Time: 20:12:57
(UTC-04:00)

Vanguard 1 - Pass Details

Date: 12 March 2018
Orbit: 650 x 3833 km, 34.3° (Epoch: 24 June)

Event Time Altitude Azimuth Distance (km) Brightness Sun altitude
Rises 12:12:11 0° 258° (WSW) 7,756 14.5 46.1°
Reaches altitude 10° 12:17:15 10° 259° (WSW) 6,869 14.3 46.7°
Maximum altitude 12:41:17 85° 174° (S) 3,454 13.9 48.9°
Drops below altitude 10° 12:58:02 10° 89° (E) 5,086 14.0 50.0°
Sets 13:01:09 0° 89° (E) 5,758 14.1 50.2°
